Hourly Weather Neuquén

Today, 30 October, Friday

Time Temperature Precipitation Wind Pressure Humidity
00:00 +13°C° 0 mm 5 mps 739 mmHg 25%
01:00 +13°C° 0 mm 5 mps 739 mmHg 26%
02:00 +12°C° 0 mm 4 mps 739 mmHg 27%
03:00 +12°C° 0 mm 4 mps 739 mmHg 27%
04:00 +11°C° 0 mm 4 mps 739 mmHg 28%
05:00 +13°C° 0 mm 5 mps 739 mmHg 26%
06:00 +15°C° 0 mm 6 mps 739 mmHg 24%
07:00 +17°C° 0 mm 6 mps 740 mmHg 23%
08:00 +20°C° 0 mm 7 mps 740 mmHg 21%
09:00 +22°C° 0 mm 7 mps 739 mmHg 19%
10:00 +24°C° 0 mm 7 mps 739 mmHg 17%
11:00 +26°C° 0 mm 7 mps 739 mmHg 16%
12:00 +27°C° 0 mm 7 mps 738 mmHg 15%
13:00 +28°C° 0 mm 7 mps 738 mmHg 14%
14:00 +28°C° 0 mm 7 mps 737 mmHg 14%
15:00 +28°C° 0 mm 7 mps 737 mmHg 14%
16:00 +28°C° 0 mm 6 mps 736 mmHg 14%
17:00 +26°C° 0 mm 6 mps 737 mmHg 16%
18:00 +23°C° 0 mm 6 mps 737 mmHg 19%
19:00 +21°C° 0 mm 5 mps 737 mmHg 22%
20:00 +20°C° 0 mm 5 mps 737 mmHg 24%
21:00 +20°C° 0 mm 5 mps 737 mmHg 26%
22:00 +19°C° 0 mm 5 mps 737 mmHg 28%
23:00 +17°C° 0 mm 5 mps 737 mmHg 30%

Tomorrow, 31 October, Saturday

Time Temperature Precipitation Wind Pressure Humidity
00:00 +16°C° 0 mm 5 mps 737 mmHg 32%
01:00 +17°C° 0 mm 4 mps 737 mmHg 34%
02:00 +15°C° 0 mm 4 mps 737 mmHg 38%
03:00 +14°C° 0 mm 4 mps 737 mmHg 42%
04:00 +14°C° 0 mm 4 mps 737 mmHg 46%
05:00 +15°C° 0 mm 4 mps 737 mmHg 42%
06:00 +17°C° 0 mm 5 mps 737 mmHg 39%
07:00 +20°C° 0 mm 5 mps 738 mmHg 35%
08:00 +23°C° 0 mm 6 mps 737 mmHg 31%
09:00 +26°C° 0 mm 6 mps 737 mmHg 27%
10:00 +28°C° 0 mm 7 mps 737 mmHg 22%
11:00 +29°C° 0 mm 7 mps 736 mmHg 20%
12:00 +32°C° 0 mm 7 mps 736 mmHg 17%
13:00 +33°C° 0 mm 7 mps 735 mmHg 15%
14:00 +33°C° 0 mm 7 mps 735 mmHg 14%
15:00 +33°C° 0 mm 7 mps 734 mmHg 13%
16:00 +33°C° 0 mm 7 mps 733 mmHg 11%
17:00 +30°C° 0 mm 7 mps 733 mmHg 14%
18:00 +28°C° 0 mm 6 mps 734 mmHg 16%
19:00 +26°C° 0 mm 5 mps 734 mmHg 19%
20:00 +26°C° 0 mm 6 mps 734 mmHg 21%
21:00 +24°C° 0 mm 6 mps 734 mmHg 24%
22:00 +23°C° 0 mm 7 mps 734 mmHg 26%
23:00 +22°C° 0 mm 7 mps 734 mmHg 30%

Day after tomorrow, 1 November, Sunday

Time Temperature Precipitation Wind Pressure Humidity
00:00 +22°C° 0 mm 7 mps 734 mmHg 35%
01:00 +21°C° 0 mm 7 mps 734 mmHg 39%
02:00 +20°C° 0 mm 7 mps 734 mmHg 41%
03:00 +19°C° 0 mm 6 mps 734 mmHg 43%
04:00 +19°C° 0 mm 5 mps 734 mmHg 45%
05:00 +20°C° 0 mm 5 mps 734 mmHg 42%
06:00 +21°C° 0 mm 5 mps 734 mmHg 38%
07:00 +22°C° 0 mm 5 mps 734 mmHg 35%
08:00 +26°C° 0 mm 5 mps 734 mmHg 30%
09:00 +28°C° 0 mm 4 mps 734 mmHg 26%
10:00 +30°C° 0 mm 4 mps 734 mmHg 21%
11:00 +32°C° 0 mm 4 mps 733 mmHg 19%
12:00 +33°C° 0 mm 3 mps 733 mmHg 16%
13:00 +35°C° 0 mm 2 mps 732 mmHg 14%
14:00 +35°C° 0 mm 2 mps 732 mmHg 13%
15:00 +35°C° 0 mm 2 mps 731 mmHg 11%
16:00 +34°C° 0 mm 1 mps 731 mmHg 10%
17:00 +32°C° 0 mm 2 mps 731 mmHg 12%
18:00 +30°C° 0 mm 2 mps 731 mmHg 14%
19:00 +28°C° 0 mm 2 mps 731 mmHg 16%
20:00 +27°C° 0 mm 3 mps 731 mmHg 17%
21:00 +26°C° 0 mm 3 mps 731 mmHg 19%
22:00 +25°C° 0 mm 3 mps 731 mmHg 20%
23:00 +25°C° 0 mm 3 mps 731 mmHg 23%

2 November, Monday

Time Temperature Precipitation Wind Pressure Humidity
00:00 +24°C° 0 mm 3 mps 731 mmHg 25%
01:00 +22°C° 0 mm 4 mps 731 mmHg 28%
02:00 +22°C° 0 mm 4 mps 731 mmHg 30%
03:00 +22°C° 0 mm 5 mps 730 mmHg 31%
04:00 +22°C° 0 mm 6 mps 730 mmHg 33%
05:00 +23°C° 0 mm 6 mps 731 mmHg 30%
06:00 +26°C° 0 mm 7 mps 731 mmHg 27%
07:00 +28°C° 0 mm 7 mps 731 mmHg 24%
08:00 +29°C° 0 mm 7 mps 731 mmHg 22%
09:00 +32°C° 0 mm 7 mps 730 mmHg 19%
10:00 +33°C° 0 mm 7 mps 730 mmHg 16%
11:00 +34°C° 0 mm 6 mps 730 mmHg 14%
12:00 +35°C° 0 mm 6 mps 729 mmHg 12%
13:00 +36°C° 0 mm 5 mps 729 mmHg 10%
14:00 +36°C° 0 mm 6 mps 728 mmHg 10%
15:00 +36°C° 0 mm 7 mps 728 mmHg 9%
16:00 +35°C° 0 mm 8 mps 728 mmHg 8%
17:00 +33°C° 0 mm 9 mps 728 mmHg 10%
18:00 +31°C° 0 mm 10 mps 729 mmHg 11%
19:00 +27°C° 0 mm 10 mps 729 mmHg 12%
20:00 +26°C° 0 mm 9 mps 730 mmHg 15%
21:00 +24°C° 0 mm 8 mps 730 mmHg 17%
22:00 +23°C° 0 mm 7 mps 731 mmHg 20%
23:00 +22°C° 0 mm 7 mps 731 mmHg 23%

3 November, Tuesday

Time Temperature Precipitation Wind Pressure Humidity
00:00 +21°C° 0 mm 7 mps 731 mmHg 27%
01:00 +20°C° 0 mm 7 mps 731 mmHg 31%
02:00 +20°C° 0 mm 7 mps 731 mmHg 32%
03:00 +18°C° 0 mm 7 mps 731 mmHg 33%
04:00 +18°C° 0 mm 7 mps 731 mmHg 34%
05:00 +20°C° 0 mm 7 mps 732 mmHg 31%
06:00 +22°C° 0 mm 7 mps 732 mmHg 27%
07:00 +23°C° 0 mm 6 mps 732 mmHg 24%
08:00 +26°C° 0 mm 6 mps 732 mmHg 22%
09:00 +27°C° 0 mm 6 mps 732 mmHg 20%
10:00 +29°C° 0 mm 5 mps 732 mmHg 18%
11:00 +30°C° 0 mm 6 mps 731 mmHg 17%
12:00 +32°C° 0 mm 7 mps 730 mmHg 16%
13:00 +33°C° 0 mm 8 mps 730 mmHg 15%
14:00 +33°C° 0 mm 8 mps 729 mmHg 15%
15:00 +33°C° 0 mm 7 mps 729 mmHg 16%
16:00 +33°C° 0 mm 6 mps 728 mmHg 16%
17:00 +30°C° 0 mm 7 mps 729 mmHg 18%
18:00 +28°C° 0 mm 7 mps 729 mmHg 21%
19:00 +26°C° 0 mm 8 mps 729 mmHg 23%
20:00 +24°C° 0 mm 8 mps 729 mmHg 26%
21:00 +22°C° 0 mm 7 mps 730 mmHg 29%
22:00 +21°C° 0 mm 7 mps 730 mmHg 32%
23:00 +21°C° 0 mm 7 mps 730 mmHg 35%

4 November, Wednesday

Time Temperature Precipitation Wind Pressure Humidity
00:00 +20°C° 0 mm 7 mps 730 mmHg 38%
01:00 +18°C° 0 mm 7 mps 729 mmHg 41%
02:00 +17°C° 0 mm 7 mps 729 mmHg 44%
03:00 +16°C° 0 mm 6 mps 729 mmHg 46%
04:00 +15°C° 0 mm 6 mps 729 mmHg 49%
05:00 +16°C° 0 mm 8 mps 729 mmHg 44%
06:00 +17°C° 0 mm 10 mps 729 mmHg 39%
07:00 +18°C° 0 mm 12 mps 730 mmHg 34%
08:00 +21°C° 0 mm 12 mps 730 mmHg 28%
09:00 +23°C° 0 mm 13 mps 730 mmHg 22%
10:00 +26°C° 0 mm 13 mps 730 mmHg 15%
11:00 +26°C° 0 mm 15 mps 730 mmHg 14%
12:00 +24°C° 0 mm 16 mps 730 mmHg 12%
13:00 +24°C° 0 mm 17 mps 730 mmHg 10%
14:00 +23°C° 0 mm 17 mps 730 mmHg 12%
15:00 +22°C° 0 mm 17 mps 730 mmHg 13%
16:00 +20°C° 0 mm 16 mps 731 mmHg 15%
17:00 +18°C° 0 mm 16 mps 731 mmHg 21%
18:00 +15°C° 0 mm 15 mps 732 mmHg 26%
19:00 +13°C° 0 mm 14 mps 732 mmHg 32%
20:00 +12°C° 0 mm 13 mps 733 mmHg 34%
21:00 +10°C° 0 mm 12 mps 734 mmHg 36%
22:00 +9°C° 0 mm 11 mps 734 mmHg 38%
23:00 +9°C° 0 mm 10 mps 734 mmHg 40%
Show more